| time (UTC) | temp F | wind direction | speed knots | gust knots | rain 1hr in | rain 24hr in | rain mn in | humidity % | barometer mb |
| 20260502183202 | 47 | 340 | 1.7 | 6.1 | 0.00 | 0.00 | 0.00 | 52 | 954.8 |
| 20260502182657 | 47 | 8 | 1.7 | 5.2 | 0.00 | 0.00 | 0.00 | 52 | 954.8 |
| 20260502182153 | 47 | 291 | 2.6 | 3.5 | 0.00 | 0.00 | 0.00 | 51 | 954.8 |
| 20260502181651 | 47 | 336 | 1.7 | 3.5 | 0.00 | 0.00 | 0.00 | 50 | 954.9 |
| 20260502181150 | 47 | 187 | 0.9 | 2.6 | 0.00 | 0.00 | 0.00 | 51 | 954.9 |
| 20260502180646 | 47 | 332 | 0.9 | 1.7 | 0.00 | 0.00 | 0.00 | 52 | 955.0 |
| 20260502180144 | 46 | 91 | 1.7 | 2.6 | 0.00 | 0.00 | 0.00 | 55 | 954.8 |
| 20260502170108 | 48 | 180 | 2.6 | 3.5 | 0.00 | 0.00 | 0.00 | 47 | 955.1 |
| 20260502164054 | 47 | 237 | 1.7 | 2.6 | 0.00 | 0.00 | 0.00 | 53 | 955.1 |
| 20260502163550 | 46 | 6 | 1.7 | 3.5 | 0.00 | 0.00 | 0.00 | 52 | 954.9 |
| 20260502163047 | 47 | 348 | 1.7 | 3.5 | 0.00 | 0.00 | 0.00 | 53 | 955.3 |
| 20260502162544 | 47 | 232 | 1.7 | 5.2 | 0.00 | 0.00 | 0.00 | 52 | 955.5 |
| 20260502162041 | 48 | 239 | 3.5 | 5.2 | 0.00 | 0.00 | 0.00 | 51 | 955.5 |
| 20260502161538 | 48 | 189 | 0.0 | 1.7 | 0.00 | 0.00 | 0.00 | 49 | 955.4 |
| 20260502161036 | 48 | 206 | 1.7 | 2.6 | 0.00 | 0.00 | 0.00 | 47 | 955.2 |
| 20260502160533 | 48 | 252 | 1.7 | 3.5 | 0.00 | 0.00 | 0.00 | 49 | 955.4 |
| 20260502151947 | 48 | 279 | 1.7 | 3.5 | 0.00 | 0.00 | 0.00 | 46 | 955.4 |
| 20260502151443 | 48 | 321 | 0.0 | 1.7 | 0.00 | 0.00 | 0.00 | 55 | 955.5 |
| 20260502150941 | 46 | 342 | 0.9 | 5.2 | 0.00 | 0.00 | 0.00 | 51 | 955.4 |
| 20260502150438 | 47 | 267 | 1.7 | 9.6 | 0.00 | 0.00 | 0.00 | 51 | 955.5 |
| 20260502130323 | 41 | 306 | 1.7 | 3.5 | 0.00 | 0.00 | 0.00 | 77 | 955.3 |
| 20260502123808 | 40 | 311 | 0.9 | 0.9 | 0.00 | 0.00 | 0.00 | 82 | 955.3 |
| 20260502123306 | 40 | 281 | 0.0 | 1.7 | 0.00 | 0.00 | 0.00 | 83 | 955.2 |
| 20260502122802 | 40 | 343 | 0.0 | 0.0 | 0.00 | 0.00 | 0.00 | 86 | 955.4 |
| 20260502122258 | 39 | 284 | 0.0 | 0.9 | 0.00 | 0.00 | 0.00 | 86 | 955.4 |
| 20260502121757 | 39 | 9 | 0.0 | 2.6 | 0.00 | 0.00 | 0.00 | 87 | 955.2 |
| 20260502121254 | 38 | 260 | 0.0 | 0.0 | 0.00 | 0.00 | 0.00 | 88 | 955.3 |
| 20260502120751 | 38 | 297 | 0.9 | 0.9 | 0.00 | 0.00 | 0.00 | 88 | 955.3 |
| 20260502120248 | 38 | 261 | 0.0 | 0.0 | 0.00 | 0.00 | 0.00 | 89 | 955.1 |
| 20260502115745 | 38 | 298 | 0.0 | 0.0 | 0.00 | 0.00 | 0.00 | 90 | 955.2 |
| 20260502115242 | 38 | 298 | 0.0 | 0.0 | 0.00 | 0.00 | 0.00 | 90 | 955.3 |
| 20260502114738 | 37 | 273 | 0.0 | 0.0 | 0.00 | 0.00 | 0.00 | 91 | 955.3 |
| 20260502114235 | 37 | 238 | 0.0 | 0.0 | 0.00 | 0.00 | 0.00 | 91 | 955.3 |
| 20260502113732 | 37 | 239 | 0.0 | 0.0 | 0.00 | 0.00 | 0.00 | 92 | 955.3 |
| 20260502113230 | 37 | 238 | 0.0 | 0.0 | 0.00 | 0.00 | 0.00 | 93 | 955.1 |
| 20260502112728 | 36 | 240 | 0.0 | 0.0 | 0.00 | 0.00 | 0.00 | 94 | 955.3 |
| 20260502112225 | 36 | 236 | 0.0 | 0.0 | 0.00 | 0.00 | 0.00 | 95 | 955.2 |
| 20260502111722 | 36 | 236 | 0.0 | 0.0 | 0.00 | 0.00 | 0.00 | 95 | 955.2 |
| 20260502111220 | 35 | 236 | 0.0 | 0.0 | 0.00 | 0.00 | 0.00 | 95 | 954.9 |
| 20260502110717 | 35 | 236 | 0.0 | 0.0 | 0.00 | 0.00 | 0.00 | 95 | 955.2 |
| 20260502110215 | 35 | 236 | 0.0 | 0.0 | 0.00 | 0.00 | 0.00 | 95 | 955.0 |
| 20260502105713 | 35 | 236 | 0.0 | 0.0 | 0.00 | 0.00 | 0.00 | 95 | 954.7 |
| 20260502105209 | 35 | 236 | 0.0 | 0.0 | 0.00 | 0.00 | 0.00 | 94 | 954.9 |
| 20260502104706 | 35 | 236 | 0.0 | 0.0 | 0.00 | 0.00 | 0.00 | 94 | 955.1 |
| 20260502104204 | 35 | 236 | 0.0 | 0.0 | 0.00 | 0.00 | 0.00 | 94 | 955.1 |
| 20260502103701 | 35 | 236 | 0.0 | 0.0 | 0.00 | 0.00 | 0.00 | 93 | 955.1 |
| 20260502103159 | 35 | 236 | 0.0 | 0.0 | 0.00 | 0.00 | 0.00 | 93 | 955.0 |
| 20260502102655 | 35 | 236 | 0.0 | 0.0 | 0.00 | 0.00 | 0.00 | 93 | 955.3 |
| 20260502102152 | 36 | 235 | 0.0 | 0.0 | 0.00 | 0.00 | 0.00 | 93 | 955.2 |
| 20260502101650 | 36 | 235 | 0.0 | 0.0 | 0.00 | 0.00 | 0.00 | 93 | 955.0 |
| 20260502101148 | 36 | 235 | 0.0 | 0.0 | 0.00 | 0.00 | 0.00 | 92 | 954.9 |
| 20260502100646 | 36 | 235 | 0.0 | 0.0 | 0.00 | 0.00 | 0.00 | 92 | 955.2 |
| 20260502100144 | 36 | 235 | 0.0 | 0.0 | 0.00 | 0.00 | 0.00 | 92 | 955.0 |
| 20260502091118 | 38 | 265 | 0.0 | 0.0 | 0.00 | 0.00 | 0.00 | 88 | 955.1 |
| 20260502090615 | 38 | 239 | 1.7 | 1.7 | 0.00 | 0.00 | 0.00 | 88 | 955.3 |
| 20260502090113 | 38 | 350 | 0.0 | 1.7 | 0.00 | 0.00 | 0.00 | 87 | 955.4 |
| 20260502071510 | 40 | 276 | 0.0 | 0.0 | 0.00 | 0.00 | 0.00 | 81 | 955.3 |
| 20260502071008 | 40 | 139 | 0.0 | 0.0 | 0.00 | 0.00 | 0.00 | 80 | 955.2 |
| 20260502070506 | 40 | 74 | 0.0 | 0.0 | 0.00 | 0.00 | 0.00 | 80 | 955.2 |
| 20260502070004 | 40 | 250 | 0.0 | 0.0 | 0.00 | 0.00 | 0.00 | 80 | 955.1 |
| 20260502065502 | 40 | 250 | 0.0 | 0.0 | 0.00 | 0.00 | 0.00 | 80 | 955.1 |
| 20260502065000 | 40 | 238 | 0.0 | 0.0 | 0.00 | 0.00 | 0.00 | 81 | 955.0 |
| 20260502064457 | 39 | 238 | 0.0 | 0.0 | 0.00 | 0.00 | 0.00 | 82 | 955.2 |
| 20260502063954 | 39 | 238 | 0.0 | 0.0 | 0.00 | 0.00 | 0.00 | 82 | 954.9 |
| 20260502063452 | 39 | 238 | 0.0 | 0.0 | 0.00 | 0.00 | 0.00 | 82 | 955.4 |
| 20260502062949 | 39 | 233 | 0.0 | 0.0 | 0.00 | 0.00 | 0.00 | 81 | 955.2 |
| 20260502062446 | 40 | 233 | 0.0 | 0.0 | 0.00 | 0.00 | 0.00 | 80 | 955.4 |
| 20260502061945 | 40 | 219 | 0.0 | 0.0 | 0.00 | 0.00 | 0.00 | 79 | 955.5 |
| 20260502061443 | 40 | 218 | 0.0 | 0.0 | 0.00 | 0.00 | 0.00 | 77 | 955.4 |
| 20260502060938 | 41 | 211 | 0.0 | 0.0 | 0.00 | 0.00 | 0.00 | 76 | 955.3 |
| 20260502060434 | 41 | 270 | 0.9 | 1.7 | 0.00 | 0.00 | 0.00 | 76 | 955.2 |
| 20260502055931 | 41 | 279 | 0.0 | 0.0 | 0.00 | 0.00 | 0.00 | 77 | 955.3 |
| 20260502055429 | 41 | 230 | 0.0 | 0.9 | 0.00 | 0.00 | 0.00 | 75 | 955.3 |
| 20260502054929 | 42 | 43 | 0.0 | 0.9 | 0.00 | 0.00 | 0.00 | 75 | 955.2 |
| 20260502054426 | 42 | 260 | 0.9 | 1.7 | 0.00 | 0.00 | 0.00 | 74 | 955.4 |
| 20260502053923 | 42 | 267 | 0.0 | 2.6 | 0.00 | 0.00 | 0.00 | 75 | 955.3 |
| 20260502053420 | 43 | 306 | 0.0 | 0.0 | 0.00 | 0.00 | 0.00 | 74 | 955.4 |
| 20260502052918 | 43 | 294 | 0.9 | 1.7 | 0.00 | 0.00 | 0.00 | 73 | 955.3 |
| 20260502052416 | 43 | 269 | 0.0 | 0.0 | 0.00 | 0.00 | 0.00 | 73 | 955.5 |
| 20260502051913 | 43 | 38 | 0.9 | 3.5 | 0.00 | 0.00 | 0.00 | 72 | 955.5 |
| 20260502051412 | 43 | 319 | 1.7 | 2.6 | 0.00 | 0.00 | 0.00 | 74 | 955.7 |
| 20260502050908 | 43 | 265 | 0.9 | 1.7 | 0.00 | 0.00 | 0.00 | 75 | 955.4 |
| 20260502050405 | 43 | 288 | 0.0 | 0.9 | 0.00 | 0.00 | 0.00 | 75 | 955.5 |
| 20260502045902 | 43 | 273 | 0.0 | 2.6 | 0.00 | 0.00 | 0.00 | 73 | 955.5 |
| 20260502045358 | 43 | 144 | 0.9 | 1.7 | 0.00 | 0.00 | 0.00 | 73 | 955.7 |
| 20260502044855 | 44 | 33 | 1.7 | 2.6 | 0.00 | 0.00 | 0.00 | 72 | 955.6 |
| 20260502044351 | 44 | 298 | 0.9 | 3.5 | 0.00 | 0.00 | 0.00 | 71 | 955.5 |
| 20260502043849 | 44 | 245 | 0.9 | 1.7 | 0.00 | 0.00 | 0.00 | 71 | 955.7 |
| 20260502043346 | 44 | 255 | 0.9 | 1.7 | 0.00 | 0.00 | 0.00 | 72 | 955.6 |
| 20260502042845 | 44 | 119 | 0.0 | 0.0 | 0.00 | 0.00 | 0.00 | 72 | 955.6 |
| 20260502042343 | 44 | 79 | 1.7 | 3.5 | 0.00 | 0.00 | 0.00 | 72 | 955.6 |
| 20260502041840 | 44 | 290 | 0.0 | 1.7 | 0.00 | 0.00 | 0.00 | 76 | 955.8 |
| 20260502041337 | 44 | 346 | 1.7 | 2.6 | 0.00 | 0.00 | 0.00 | 76 | 955.6 |
| 20260502040835 | 44 | 255 | 1.7 | 2.6 | 0.00 | 0.00 | 0.00 | 77 | 955.5 |
| 20260502040332 | 44 | 309 | 0.0 | 2.6 | 0.00 | 0.00 | 0.00 | 79 | 955.4 |
| 20260502035828 | 45 | 145 | 0.0 | 1.7 | 0.00 | 0.00 | 0.00 | 79 | 955.4 |
| 20260502035324 | 45 | 257 | 0.9 | 2.6 | 0.00 | 0.00 | 0.00 | 79 | 955.4 |
| 20260502034822 | 45 | 243 | 0.0 | 1.7 | 0.00 | 0.00 | 0.00 | 78 | 955.7 |
| 20260502034320 | 45 | 314 | 0.9 | 1.7 | 0.00 | 0.00 | 0.00 | 78 | 955.6 |
| 20260502033818 | 45 | 147 | 0.0 | 0.9 | 0.00 | 0.00 | 0.00 | 78 | 955.7 |
| 20260502033315 | 45 | 253 | 0.0 | 0.9 | 0.00 | 0.00 | 0.00 | 78 | 955.5 |
| 20260502032812 | 45 | 232 | 0.0 | 0.9 | 0.00 | 0.00 | 0.00 | 77 | 955.7 |
| 20260502032308 | 45 | 199 | 0.9 | 3.5 | 0.00 | 0.00 | 0.00 | 77 | 955.5 |
| 20260502031806 | 45 | 266 | 1.7 | 2.6 | 0.00 | 0.00 | 0.00 | 76 | 955.5 |
| 20260502031304 | 45 | 0 | 0.0 | 1.7 | 0.00 | 0.00 | 0.00 | 77 | 955.5 |
| 20260502030802 | 46 | 313 | 0.0 | 0.0 | 0.00 | 0.00 | 0.00 | 76 | 955.5 |
| 20260502030300 | 46 | 221 | 0.9 | 2.6 | 0.00 | 0.00 | 0.00 | 76 | 955.3 |
| 20260502025757 | 46 | 237 | 1.7 | 2.6 | 0.00 | 0.00 | 0.00 | 75 | 955.4 |
| 20260502025255 | 46 | 325 | 3.5 | 5.2 | 0.00 | 0.00 | 0.00 | 74 | 955.3 |
| 20260502024752 | 46 | 270 | 2.6 | 3.5 | 0.00 | 0.00 | 0.00 | 74 | 955.2 |
| 20260502024250 | 46 | 309 | 0.9 | 1.7 | 0.00 | 0.00 | 0.00 | 75 | 955.1 |
| 20260502023748 | 46 | 350 | 0.9 | 0.9 | 0.00 | 0.00 | 0.00 | 74 | 955.1 |
| 20260502023245 | 46 | 228 | 0.9 | 3.5 | 0.00 | 0.00 | 0.00 | 74 | 954.8 |
| 20260502022743 | 46 | 358 | 0.0 | 3.5 | 0.00 | 0.00 | 0.00 | 74 | 954.9 |
| 20260502022239 | 46 | 251 | 0.9 | 2.6 | 0.00 | 0.00 | 0.00 | 73 | 955.0 |
| 20260502021736 | 46 | 268 | 1.7 | 2.6 | 0.00 | 0.00 | 0.00 | 73 | 955.1 |
| 20260502021233 | 46 | 310 | 0.9 | 2.6 | 0.00 | 0.00 | 0.00 | 73 | 954.9 |
| 20260502020730 | 46 | 230 | 0.9 | 2.6 | 0.00 | 0.00 | 0.00 | 73 | 954.8 |
| 20260502020227 | 46 | 309 | 0.0 | 0.0 | 0.00 | 0.00 | 0.00 | 73 | 954.6 |
| 20260502015726 | 47 | 241 | 0.9 | 2.6 | 0.00 | 0.00 | 0.00 | 73 | 954.7 |
| 20260502015221 | 47 | 305 | 0.9 | 1.7 | 0.00 | 0.00 | 0.00 | 73 | 954.6 |
| 20260502014719 | 47 | 359 | 1.7 | 6.1 | 0.00 | 0.00 | 0.00 | 73 | 954.4 |
| 20260502014216 | 47 | 218 | 3.5 | 5.2 | 0.00 | 0.00 | 0.00 | 73 | 954.5 |
| 20260502013712 | 47 | 341 | 4.3 | 7.0 | 0.00 | 0.00 | 0.00 | 73 | 954.5 |
| 20260502013207 | 48 | 322 | 0.9 | 3.5 | 0.00 | 0.00 | 0.00 | 73 | 954.4 |
| 20260502012705 | 48 | 267 | 0.9 | 2.6 | 0.00 | 0.00 | 0.00 | 74 | 954.3 |
| 20260502012203 | 48 | 244 | 0.0 | 1.7 | 0.00 | 0.00 | 0.00 | 74 | 954.5 |
| 20260502011659 | 48 | 30 | 0.9 | 2.6 | 0.00 | 0.00 | 0.00 | 74 | 954.2 |
| 20260502011155 | 48 | 311 | 0.9 | 1.7 | 0.00 | 0.00 | 0.00 | 74 | 954.2 |
| 20260502010653 | 48 | 290 | 0.9 | 1.7 | 0.00 | 0.00 | 0.00 | 73 | 954.3 |
| 20260502010149 | 49 | 336 | 2.6 | 7.0 | 0.00 | 0.00 | 0.00 | 74 | 954.1 |
| 20260502005646 | 49 | 38 | 0.9 | 2.6 | 0.00 | 0.00 | 0.00 | 75 | 953.9 |
| 20260502005144 | 49 | 289 | 0.0 | 2.6 | 0.00 | 0.00 | 0.00 | 75 | 953.7 |
| 20260502004640 | 49 | 236 | 1.7 | 2.6 | 0.00 | 0.00 | 0.00 | 75 | 953.7 |
| 20260502004137 | 49 | 225 | 0.9 | 1.7 | 0.00 | 0.00 | 0.00 | 76 | 953.8 |
| 20260502003635 | 49 | 351 | 2.6 | 5.2 | 0.00 | 0.00 | 0.00 | 77 | 953.6 |
| 20260502003132 | 49 | 323 | 1.7 | 7.0 | 0.00 | 0.00 | 0.00 | 77 | 953.5 |
| 20260502002627 | 49 | 341 | 0.9 | 2.6 | 0.00 | 0.00 | 0.00 | 76 | 953.5 |
| 20260502002125 | 49 | 217 | 0.0 | 0.9 | 0.00 | 0.00 | 0.00 | 76 | 953.3 |
| 20260502001623 | 49 | 167 | 0.9 | 1.7 | 0.00 | 0.00 | 0.00 | 75 | 952.9 |
| 20260502001120 | 50 | 236 | 1.7 | 1.7 | 0.00 | 0.00 | 0.00 | 74 | 952.9 |
| 20260502000618 | 50 | 209 | 0.0 | 0.0 | 0.00 | 0.00 | 0.00 | 73 | 952.7 |
| 20260502000115 | 50 | 72 | 0.0 | 7.0 | 0.00 | 0.00 | 0.00 | 72 | 952.9 |
| 20260501235611 | 51 | 29 | 4.3 | 7.0 | 0.00 | 0.00 | 0.00 | 70 | 952.4 |
| 20260501235107 | 51 | 57 | 1.7 | 5.2 | 0.00 | 0.00 | 0.00 | 71 | 952.5 |
| 20260501234602 | 51 | 271 | 3.5 | 6.1 | 0.00 | 0.00 | 0.00 | 69 | 952.6 |
| 20260501234100 | 51 | 165 | 0.9 | 6.1 | 0.00 | 0.00 | 0.00 | 69 | 952.4 |
| 20260501233558 | 51 | 249 | 2.6 | 6.1 | 0.00 | 0.00 | 0.00 | 68 | 952.3 |
| 20260501233055 | 52 | 330 | 1.7 | 5.2 | 0.00 | 0.00 | 0.00 | 67 | 952.3 |
| 20260501232551 | 52 | 240 | 0.0 | 5.2 | 0.00 | 0.00 | 0.00 | 66 | 952.1 |
| 20260501232049 | 52 | 349 | 0.0 | 5.2 | 0.00 | 0.00 | 0.00 | 66 | 952.1 |
| 20260501231546 | 53 | 321 | 2.6 | 2.6 | 0.00 | 0.00 | 0.00 | 65 | 952.2 |
| 20260501231044 | 53 | 329 | 2.6 | 7.8 | 0.00 | 0.00 | 0.00 | 63 | 952.0 |
| 20260501230543 | 55 | 259 | 3.5 | 6.1 | 0.00 | 0.00 | 0.00 | 60 | 952.1 |
| 20260501230041 | 55 | 325 | 1.7 | 7.8 | 0.00 | 0.00 | 0.00 | 60 | 952.1 |
| 20260501225538 | 55 | 282 | 1.7 | 5.2 | 0.00 | 0.00 | 0.00 | 57 | 952.1 |
| 20260501225034 | 55 | 256 | 1.7 | 3.5 | 0.00 | 0.00 | 0.00 | 58 | 951.9 |
| 20260501224532 | 56 | 75 | 0.9 | 5.2 | 0.00 | 0.00 | 0.00 | 53 | 951.9 |
| 20260501224028 | 58 | 325 | 1.7 | 5.2 | 0.00 | 0.00 | 0.00 | 50 | 951.6 |
| 20260501223525 | 59 | 55 | 3.5 | 7.8 | 0.00 | 0.00 | 0.00 | 46 | 951.4 |
| 20260501223021 | 61 | 261 | 0.9 | 2.6 | 0.00 | 0.00 | 0.00 | 38 | 951.2 |
| 20260501222517 | 61 | 252 | 1.7 | 3.5 | 0.00 | 0.00 | 0.00 | 39 | 951.4 |
| 20260501222014 | 61 | 214 | 0.9 | 7.8 | 0.00 | 0.00 | 0.00 | 39 | 951.3 |
| 20260501221511 | 61 | 236 | 1.7 | 3.5 | 0.00 | 0.00 | 0.00 | 38 | 951.2 |
| 20260501221009 | 61 | 289 | 0.0 | 3.5 | 0.00 | 0.00 | 0.00 | 39 | 951.5 |
| 20260501220506 | 63 | 281 | 1.7 | 3.5 | 0.00 | 0.00 | 0.00 | 35 | 951.3 |
| 20260501220002 | 63 | 254 | 0.0 | 2.6 | 0.00 | 0.00 | 0.00 | 34 | 951.2 |
| 20260501215459 | 62 | 272 | 3.5 | 5.2 | 0.00 | 0.00 | 0.00 | 33 | 951.5 |
| 20260501214954 | 61 | 222 | 3.5 | 6.1 | 0.00 | 0.00 | 0.00 | 37 | 951.3 |
| 20260501214450 | 61 | 254 | 0.9 | 5.2 | 0.00 | 0.00 | 0.00 | 35 | 951.2 |
| 20260501213946 | 61 | 238 | 0.9 | 3.5 | 0.00 | 0.00 | 0.00 | 33 | 951.3 |
| 20260501213444 | 62 | 219 | 3.5 | 7.0 | 0.00 | 0.00 | 0.00 | 35 | 951.3 |
| 20260501212944 | 64 | 222 | 1.7 | 9.6 | 0.00 | 0.00 | 0.00 | 33 | 951.1 |
| 20260501212441 | 64 | 227 | 1.7 | 5.2 | 0.00 | 0.00 | 0.00 | 33 | 951.4 |
| 20260501211938 | 65 | 223 | 0.0 | 3.5 | 0.00 | 0.00 | 0.00 | 35 | 951.4 |
| 20260501211436 | 64 | 17 | 1.7 | 3.5 | 0.00 | 0.00 | 0.00 | 32 | 951.2 |
| 20260501210933 | 63 | 157 | 1.7 | 2.6 | 0.00 | 0.00 | 0.00 | 34 | 951.2 |
| 20260501210429 | 63 | 255 | 5.2 | 8.7 | 0.00 | 0.00 | 0.00 | 31 | 951.5 |
| 20260501205926 | 63 | 35 | 2.6 | 3.5 | 0.00 | 0.00 | 0.00 | 31 | 951.4 |
| 20260501205423 | 64 | 190 | 3.5 | 9.6 | 0.00 | 0.00 | 0.00 | 31 | 951.4 |
| 20260501204920 | 64 | 154 | 4.3 | 7.8 | 0.00 | 0.00 | 0.00 | 30 | 951.5 |
| 20260501204416 | 64 | 246 | 0.9 | 5.2 | 0.00 | 0.00 | 0.00 | 34 | 951.4 |
| 20260501203912 | 64 | 194 | 0.9 | 5.2 | 0.00 | 0.00 | 0.00 | 32 | 951.4 |
| 20260501203409 | 65 | 336 | 2.6 | 6.1 | 0.00 | 0.00 | 0.00 | 30 | 951.4 |
| 20260501202907 | 64 | 215 | 4.3 | 13.9 | 0.00 | 0.00 | 0.00 | 28 | 951.2 |
| 20260501202403 | 64 | 289 | 1.7 | 6.1 | 0.00 | 0.00 | 0.00 | 28 | 951.4 |
| 20260501201900 | 65 | 235 | 4.3 | 6.1 | 0.00 | 0.00 | 0.00 | 27 | 951.2 |
| 20260501201357 | 65 | 319 | 1.7 | 11.3 | 0.00 | 0.00 | 0.00 | 31 | 951.1 |
| 20260501200853 | 64 | 259 | 2.6 | 6.1 | 0.00 | 0.00 | 0.00 | 29 | 951.2 |
| 20260501200350 | 66 | 254 | 2.6 | 3.5 | 0.00 | 0.00 | 0.00 | 29 | 951.1 |
| 20260501195849 | 65 | 228 | 2.6 | 5.2 | 0.00 | 0.00 | 0.00 | 32 | 951.4 |
| 20260501195344 | 63 | 282 | 5.2 | 7.0 | 0.00 | 0.00 | 0.00 | 26 | 951.5 |
| 20260501194840 | 65 | 209 | 0.9 | 1.7 | 0.00 | 0.00 | 0.00 | 29 | 951.5 |
| 20260501194336 | 64 | 266 | 3.5 | 7.8 | 0.00 | 0.00 | 0.00 | 25 | 951.5 |
| 20260501193833 | 65 | 273 | 5.2 | 7.0 | 0.00 | 0.00 | 0.00 | 25 | 951.5 |
| 20260501193331 | 66 | 202 | 4.3 | 7.8 | 0.00 | 0.00 | 0.00 | 24 | 951.5 |
| 20260501192828 | 65 | 315 | 2.6 | 7.0 | 0.00 | 0.00 | 0.00 | 26 | 951.5 |
| 20260501192326 | 64 | 204 | 5.2 | 7.0 | 0.00 | 0.00 | 0.00 | 31 | 951.5 |
| 20260501191822 | 64 | 173 | 4.3 | 7.8 | 0.00 | 0.00 | 0.00 | 26 | 951.3 |
| 20260501191320 | 64 | 336 | 1.7 | 6.1 | 0.00 | 0.00 | 0.00 | 26 | 951.6 |
| 20260501190816 | 65 | 263 | 3.5 | 7.0 | 0.00 | 0.00 | 0.00 | 25 | 952.0 |
| 20260501190312 | 64 | 328 | 3.5 | 5.2 | 0.00 | 0.00 | 0.00 | 23 | 952.1 |
| 20260501185808 | 63 | 221 | 3.5 | 5.2 | 0.00 | 0.00 | 0.00 | 26 | 951.9 |
| 20260501185306 | 63 | 177 | 5.2 | 6.1 | 0.00 | 0.00 | 0.00 | 24 | 952.0 |
| 20260501184800 | 64 | 244 | 2.6 | 8.7 | 0.00 | 0.00 | 0.00 | 27 | 952.1 |
| 20260501184255 | 63 | 223 | 3.5 | 5.2 | 0.00 | 0.00 | 0.00 | 24 | 951.9 |
| 20260501183752 | 64 | 239 | 5.2 | 6.1 | 0.00 | 0.00 | 0.00 | 25 | 951.6 |